Newtonia, Missouri
Current Conditions -  °F | °C
As of 4:15 AM on Thursday 23 Oct 2014 (Local Time) from KHFJ Reporting Station
Scattered Clouds Scattered Clouds  
Wind Chill: 54°   Ceiling: Unl
Heat Index: 54°   Visibility: 10mi
Dew Point: 50°   Wind: 6mph
Humidity: 88%   Direction: 160°SSE
Pressure: 30.15"   Gusts: NA
Location:  36.88°N, 94.19°W
Report Text: KHFJ 230915Z AUTO 16005KT 10SM SCT060 SCT120 12/10 A3015 RMK AO2
Loading
Personal Weather Stations






























Interactive Weather Map
Tropical Storm Tracking
New forecast layout! Learn more

10-Day Weather Forecast

Advertisements
Track Severe Weather on mobile